RH
100 97 94 88 93 82 75 66 65 72 85 87 80 78 80 96 94 89 68 64 76 76 73 94 97 96 92
100 98 96 96 82 67 65 60 71 77 78 77 76 84 99 100 92 81 80 80 95 96 100 94 89 76 65
97 97 78 48 50 51 50 51 57 58 66 73 96 96 93 73 74 84 99 94 99 98 96 85 74 60 53
56 39 48 78 73 64 63 67 72 81 78 83 85 89 80 79 100 99 93 95 92 81 80 72 57 50 46
35 36 74 100 88 77 73 77 100 94 95 87 82 98 100 96 96 96 95 74 68 75 70 56 48 46 42
28 48 100 100 93 74 79 73 57 86 92 100 100 98 97 90 92 88 76 66 69 69 59 55 49 43 42
24 53 46 59 63 72 73 65 70 78 98 83 95 97 95 82 95 94 73 67 69 65 61 54 44 40 43
40 77 84 40 42 51 79 66 81 99 100 86 89 92 92 90 91 81 72 73 70 65 55 48 43 44 42
69 85 81 28 30 35 72 65 98 100 100 99 99 96 86 84 79 78 75 74 68 60 52 52 50 46 44
19 23 23 23 24 45 55 59 74 99 100 100 90 88 91 89 87 81 80 75 65 57 66 61 55 48 36
21 21 22 24 24 27 30 76 99 99 100 100 90 87 80 83 93 83 79 72 70 76 70 64 59 48 35
21 22 23 25 33 34 37 73 95 95 100 100 96 88 81 78 79 78 76 74 69 62 60 63 57 41 31
29 32 32 38 40 54 83 96 93 96 100 98 87 84 82 76 77 80 66 74 64 60 58 58 45 34 23
43 36 40 50 80 99 100 98 99 100 98 87 83 83 83 79 78 75 65 58 60 58 52 48 35 24 12
51 52 56 75 96 100 100 100 100 99 94 90 90 88 85 84 82 66 63 67 65 58 51 39 20 14 11
69 77 91 93 98 100 100 100 100 97 93 90 91 87 89 92 79 70 75 68 64 56 43 29 14 12 15
89 92 100 100 100 100 100 100 100 96 95 91 87 84 88 92 90 75 73 70 60 48 32 13 11 14 22
Wind_Speed
48 46 46 50 52 52 58 59 56 54 51 50 55 57 60 58 61 62 56 55 54 59 57 54 51 51 54
54 52 58 61 59 57 58 57 58 56 57 60 58 57 57 58 54 54 55 58 62 56 53 50 51 54 55
57 62 62 59 59 59 60 60 60 58 58 56 55 53 47 47 51 55 60 57 55 50 50 51 52 54 57
58 59 60 56 56 60 56 55 52 50 52 46 43 46 49 54 55 57 56 51 49 50 51 52 55 58 61
61 62 58 55 57 55 53 47 49 52 50 48 50 49 51 53 55 51 49 49 51 52 53 55 59 62 66
59 55 58 59 61 58 54 45 46 48 46 45 48 48 50 51 51 50 50 52 51 53 56 59 63 67 71
53 54 55 56 54 50 46 46 46 45 46 48 51 51 51 54 56 55 53 52 53 56 59 63 68 70 74
46 46 47 51 48 47 47 48 45 48 49 48 49 51 55 56 55 54 53 53 56 59 64 67 70 73 77
43 49 51 48 46 46 46 45 47 51 52 50 48 51 53 53 53 53 54 56 59 63 67 70 74 76 81
44 46 45 44 44 44 45 46 48 51 53 51 52 52 50 50 51 53 55 58 62 66 70 74 77 80 82
43 45 44 45 46 45 45 46 47 49 50 49 52 52 50 49 51 55 57 61 65 68 73 78 80 83 85
44 44 44 44 44 46 46 46 47 48 52 52 51 51 51 51 53 57 60 64 66 70 74 79 82 84 89
42 42 44 45 45 44 44 46 46 47 48 50 50 51 52 53 55 59 59 65 69 72 76 80 83 86 87
43 44 44 43 43 43 44 44 45 48 51 52 52 52 53 56 58 60 64 66 70 74 77 80 84 87 90
44 44 44 45 46 46 46 47 49 51 51 51 50 52 55 57 59 62 65 68 72 75 78 79 84 87 83
45 46 47 48 49 49 50 50 50 51 51 50 51 54 56 60 62 64 67 69 72 75 77 79 82 80 73
45 46 47 50 50 49 51 51 50 52 51 52 53 55 58 61 65 65 66 70 71 74 76 80 79 70 64
Wind_Direction
271 278 283 294 298 295 294 300 295 296 285 288 293 288 288 294 292 295 294 295 300 300 300 299 301 302 300
271 275 288 291 294 293 292 293 289 292 293 289 288 294 291 293 294 295 295 296 300 299 298 301 303 304 304
276 287 292 290 291 292 294 291 290 292 291 290 289 291 293 297 298 297 296 300 300 299 301 303 302 302 302
291 290 292 289 292 297 294 295 294 293 292 291 291 295 297 297 296 299 300 300 301 302 303 302 302 304 306
288 289 285 286 293 295 295 297 293 294 288 293 293 293 290 296 299 298 298 302 304 302 302 304 306 307 307
283 283 281 287 290 292 291 291 291 288 288 290 291 292 296 300 297 297 299 303 302 302 304 305 307 309 310
282 283 285 285 288 288 287 283 287 285 289 293 295 295 297 299 295 295 301 303 303 304 306 308 308 310 311
280 282 285 288 285 284 281 280 284 286 289 292 296 296 296 298 296 297 302 303 304 307 309 307 309 311 312
278 282 284 284 284 282 280 280 285 287 291 292 294 297 298 296 297 301 303 305 307 308 307 310 311 312 312
284 280 280 283 282 282 282 284 284 285 290 294 297 296 295 298 300 303 304 305 307 308 310 312 312 312 313
276 277 279 280 282 282 284 283 284 288 289 292 294 295 297 297 300 303 304 306 307 310 312 312 312 313 314
277 279 281 281 282 283 283 282 285 287 289 291 293 295 297 299 301 302 305 306 308 311 312 311 312 314 316
278 281 282 281 281 281 282 285 287 288 288 292 295 296 297 300 300 303 306 307 310 311 312 312 314 316 316
279 282 283 281 281 282 285 287 287 288 291 295 296 296 298 299 302 304 306 308 310 311 313 315 316 318 320
278 280 281 280 281 285 287 288 288 290 292 292 294 296 298 300 303 305 308 311 312 313 315 317 319 320 321
275 278 281 280 282 284 283 286 287 290 292 293 295 298 300 302 303 307 310 311 313 314 317 319 321 322 322
272 275 278 280 280 278 283 286 288 290 291 292 295 299 301 302 305 307 309 311 313 316 320 321 323 322 322